Location: ScottNC Observatory
(36.0892°N, 80.4832°W)
Time: 00:12:05
(UTC-05:00)

N. Korean satellite - Visible Passes

Search period start: 20 November 2019 00:00
Search period end: 30 November 2019 00:00
Orbit: 456 x 506 km, 97.2° (Epoch: 18 November)

Date Brightness Start Highest point End Pass type
(mag) Time Alt. Az. Time Alt. Az. Time Alt. Az.
20 Nov 9.4 05:30:09 10° NE 05:33:04 22° E 05:35:54 10° SSE visible
20 Nov 6.8 17:35:06 10° S 17:38:43 79° W 17:42:26 10° NNW visible
21 Nov 10.4 05:07:14 10° E 05:07:29 10° E 05:07:45 10° E visible
22 Nov 6.6 06:12:03 10° NNE 06:15:44 87° ESE 06:19:21 10° SSW visible
22 Nov 9.6 18:18:41 10° SW 18:21:25 20° W 18:24:12 10° NW visible
23 Nov 8.3 05:46:54 10° NNE 05:50:19 36° E 05:53:40 10° SSE visible
23 Nov 8.0 17:52:26 10° S 17:55:56 43° W 17:59:29 10° NNW visible
24 Nov 9.7 05:22:21 10° NE 05:24:48 17° E 05:27:13 10° SE visible
25 Nov 6.7 06:29:19 10° N 06:32:52 51° WNW 06:36:22 10° SSW visible
25 Nov 10.1 18:37:13 10° WSW 18:38:43 12° W 18:40:14 10° WNW visible
26 Nov 7.0 06:03:53 10° NNE 06:07:31 66° E 06:11:04 10° S visible
26 Nov 9.2 18:10:04 10° SSW 18:13:10 25° W 18:16:17 10° NW visible
27 Nov 8.8 05:38:53 10° NE 05:42:03 28° E 05:45:10 10° SSE visible
27 Nov 7.4 17:44:05 10° S 17:47:41 57° W 17:51:21 10° NNW visible
28 Nov 10.0 05:14:42 10° ENE 05:16:29 13° E 05:18:16 10° ESE visible
29 Nov 6.5 06:21:02 10° N 06:24:38 68° WNW 06:28:09 10° SSW visible
29 Nov 9.9 18:28:09 10° SW 18:30:24 15° W 18:32:40 10° NW visible
